sat.trackr.live / text

‹ back to catalog

STARLINK-11691 [DTC]

NORAD 64236 · 2025-119D

PAYLOAD ACTIVE UNKNOWN

§ Identity

Operator
Country
US
Launch date
2025-06-03
Launch site
AFETR
Launch vehicle
Mass (kg)
RCS (m²)

Purposes: comms

External: N2YO · Heavens-Above · Gunter

§ Orbital elements

Epoch: 2026-05-24T21:46:53.975424Z

Period
91.66 min
Inclination
42.9996°
Eccentricity
0.0002916
Mean motion
15.70951965 rev/d
Perigee alt
354.2 km
Apogee alt
358.1 km
Semi-major
6,734.3 km
B*
1.2792e-3
RAAN
109.5353°
Arg perigee
280.3603°
Mean anomaly
79.6936°
Rev number
5,723

§ Raw data

STARLINK-11691 [DTC]1 64236U 25119D   26144.90756916  .00167848  00000+0  12792-2 0  99952 64236  42.9996 109.5353 0002916 280.3603  79.6936 15.70951965 57233

JSON: /api/v1/satellites/64236 · /tle

For live sub-satellite position, see the globe view (requires WebGL).

§ Visibility from observer

Set your observer location to see the next 7 days of passes ≥ 10°. The values pass through the URL so the page stays shareable.

No JS? Fill the form by hand. The geolocation button needs JavaScript.